Date String (YYYY-MM-DD hh:mm:ss) UTC,Instrument flags,absolute air pressure of the measurement (hPa),sample flow rate (lpm),inlet stack bypass flow (lpm),air temperature of the measurement (°C),ambient temperature measured by the external sensor (°C),aerosol sample conditioner tube jacket temperature (°C),OPC LED temperature (°C),internal box temperature (°C),relative humidity of the measurement (%),span deviation,mass concentration of particles derived from Lorenz-Mie calculation of OPC scattering (μg/m³),mass concentration of particles derived from Lorenz-Mie calculation of OPC scattering (μg/m³),mass concentration of particles derived from Lorenz-Mie calculation of OPC scattering (μg/m³)
DateTimeUTC,F1_M11,P_M11,Q1_M11,Q2_M11,T1_M11,T2_M11,T3_M11,T4_M11,T5_M11,U1_M11,ZSPAN_M11,X0_M11,X2_M11,X1_M11
2023-12-26 09:00:00,SystemResetWarning,0823.3,5.00,000.00,018.7,017.5,000.0,027.2,020.0,7.8,0000.0,0002.91,0002.26,0002.04
2023-12-26 09:01:00,SystemResetWarning,0823.3,4.99,000.00,018.7,017.4,000.0,027.2,020.0,7.6,0000.0,0003.29,0002.25,0002.02
2023-12-26 09:02:00,SystemResetWarning,0823.3,5.00,000.00,018.7,017.4,000.0,027.2,020.0,7.6,0000.0,0004.58,0002.26,0002.01
2023-12-26 09:03:00,SystemResetWarning,0823.2,5.00,000.00,018.7,017.4,000.0,027.2,020.0,8.4,0000.0,0004.57,0002.25,0002.00
2023-12-26 09:04:00,SystemResetWarning,0823.1,5.00,000.00,018.7,017.4,000.0,027.2,020.0,8.6,0000.0,0004.50,0002.22,0001.99
2023-12-26 09:05:00,SystemResetWarning,0823.2,5.00,000.00,018.7,017.5,000.0,027.2,020.2,8.5,0000.0,0004.56,0002.25,0001.99
2023-12-26 09:06:00,SystemResetWarning,0823.3,5.01,000.00,018.8,018.3,000.0,027.2,020.6,8.4,0000.0,0004.57,0002.26,0002.00
2023-12-26 09:07:00,SystemResetWarning,0823.3,4.99,000.00,019.0,019.0,000.0,027.2,020.9,8.1,0000.0,0004.58,0002.26,0001.99
2023-12-26 09:08:00,SystemResetWarning,0823.3,4.98,000.00,019.0,019.1,000.0,027.2,020.7,8.3,0000.0,0004.65,0002.25,0001.98
2023-12-26 09:09:00,SystemResetWarning,0823.3,5.00,000.00,019.1,019.0,000.0,027.2,020.5,8.9,0000.0,0004.66,0002.24,0001.97
2023-12-26 09:10:00,SystemResetWarning,0823.1,5.01,000.00,019.0,018.8,000.0,027.2,020.3,8.6,0000.0,0004.70,0002.23,0001.97
2023-12-26 09:11:00,SystemResetWarning,0823.1,5.01,000.00,019.0,018.7,000.0,027.2,020.2,8.0,0000.0,0004.63,0002.23,0001.98
2023-12-26 09:12:00,SystemResetWarning,0823.1,5.00,000.00,019.0,018.6,000.0,027.2,020.2,8.3,0000.0,0004.41,0002.26,0001.99
2023-12-26 09:13:00,SystemResetWarning,0823.1,5.00,000.00,019.0,018.5,000.0,027.2,020.2,8.5,0000.0,0003.06,0002.23,0001.98
2023-12-26 09:14:00,SystemResetWarning,0823.1,5.00,000.00,018.9,018.4,000.0,027.2,020.1,8.2,0000.0,0003.07,0002.23,0001.97
2023-12-26 09:15:00,SystemResetWarning,0823.0,5.00,000.00,018.9,018.3,000.0,027.2,020.1,7.6,0000.0,0003.24,0002.25,0001.96
2023-12-26 09:16:00,SystemResetWarning,0823.1,5.00,000.00,018.9,018.2,000.0,027.2,020.0,7.7,0000.0,0003.22,0002.21,0001.93
2023-12-26 09:17:00,SystemResetWarning,0823.1,5.00,000.00,018.9,018.1,000.0,027.2,020.0,7.7,0000.0,0003.15,0002.17,0001.92
2023-12-26 09:18:00,SystemResetWarning,0823.1,5.00,000.00,018.8,018.1,000.0,027.3,020.0,7.7,0000.0,0003.13,0002.15,0001.91
2023-12-26 09:19:00,SystemResetWarning,0823.1,5.00,000.00,018.8,018.0,000.0,027.3,020.0,7.7,0000.0,0004.23,0002.12,0001.89
2023-12-26 09:20:00,SystemResetWarning,0823.1,5.01,000.00,018.8,018.0,000.0,027.3,020.0,7.8,0000.0,0004.25,0002.09,0001.87
2023-12-26 09:21:00,SystemResetWarning,0823.1,5.00,000.00,018.8,017.9,000.0,027.3,020.0,7.8,0000.0,0004.14,0002.05,0001.84
2023-12-26 09:22:00,SystemResetWarning,0823.0,5.00,000.00,018.8,017.9,000.0,027.3,020.0,7.9,0000.0,0004.10,0002.03,0001.81
2023-12-26 09:23:00,SystemResetWarning,0823.0,5.00,000.00,018.8,017.9,000.0,027.3,020.0,8.3,0000.0,0003.91,0001.97,0001.78
2023-12-26 09:24:00,SystemResetWarning,0823.0,5.00,000.00,018.8,017.8,000.0,027.3,020.0,8.3,0000.0,0004.18,0001.94,0001.74
2023-12-26 09:25:00,SystemResetWarning,0822.9,5.00,000.00,018.8,017.8,000.0,027.3,020.0,8.3,0000.0,0004.29,0001.86,0001.67
2023-12-26 09:26:00,SystemResetWarning,0822.9,5.01,000.00,018.8,017.8,000.0,027.3,020.0,9.4,0000.0,0004.15,0001.78,0001.60
2023-12-26 09:27:00,SystemResetWarning,0822.9,5.01,000.00,018.8,017.8,000.0,027.3,020.0,9.2,0000.0,0004.02,0001.73,0001.54
2023-12-26 09:28:00,SystemResetWarning,0822.9,5.00,000.00,018.8,017.8,000.0,027.3,020.0,9.0,0000.0,0004.01,0001.68,0001.46
2023-12-26 09:29:00,SystemResetWarning,0822.9,5.00,000.00,018.8,017.8,000.0,027.3,020.0,8.9,0000.0,0005.19,0001.68,0001.41
2023-12-26 09:30:00,SystemResetWarning,0822.9,5.00,000.00,018.8,017.7,000.0,027.3,020.0,8.7,0000.0,0004.35,0001.67,0001.36
2023-12-26 09:31:00,SystemResetWarning,0823.1,4.99,000.00,018.8,017.7,000.0,027.3,020.0,8.6,0000.0,0004.00,0001.63,0001.31
2023-12-26 09:32:00,SystemResetWarning,0823.0,5.00,000.00,018.8,017.7,000.0,027.3,020.0,8.5,0000.0,0004.26,0001.58,0001.26
2023-12-26 09:33:00,SystemResetWarning,0823.1,5.00,000.00,018.7,017.7,000.0,027.3,020.0,8.4,0000.0,0004.52,0001.54,0001.21
2023-12-26 09:34:00,SystemResetWarning,0822.8,5.01,000.00,018.7,017.6,000.0,027.3,020.0,8.4,0000.0,0004.96,0001.51,0001.20
2023-12-26 09:35:00,SystemResetWarning,0823.0,5.01,000.00,018.8,017.9,000.0,027.2,020.3,8.3,0000.0,0005.57,0001.52,0001.24
2023-12-26 09:36:00,SystemResetWarning,0823.0,5.00,000.00,018.9,018.7,000.0,027.2,020.7,8.2,0000.0,0005.28,0001.56,0001.31
2023-12-26 09:37:00,SystemResetWarning,0822.7,4.99,000.00,019.0,018.9,000.0,027.2,020.5,8.4,0000.0,0005.32,0001.62,0001.38
2023-12-26 09:38:00,SystemResetWarning,0822.6,4.99,000.00,019.0,018.8,000.0,027.2,020.2,8.4,0000.0,0005.32,0001.66,0001.45
2023-12-26 09:39:00,SystemResetWarning,0822.8,5.00,000.00,018.9,018.5,000.0,027.2,020.0,8.3,0000.0,0005.40,0001.73,0001.51
2023-12-26 09:40:00,SystemResetWarning,0822.7,5.00,000.00,018.9,018.3,000.0,027.2,020.0,8.4,0000.0,0004.77,0001.74,0001.56
2023-12-26 09:41:00,SystemResetWarning,0822.7,5.00,000.00,018.9,018.2,000.0,027.2,020.0,8.5,0000.0,0004.08,0001.76,0001.62
2023-12-26 09:42:00,SystemResetWarning,0822.8,5.01,000.00,018.8,018.0,000.0,027.3,020.0,8.7,0000.0,0004.09,0001.80,0001.68
2023-12-26 09:43:00,SystemResetWarning,0822.6,5.01,000.00,018.8,017.9,000.0,027.3,020.0,8.8,0000.0,0004.08,0001.86,0001.75
2023-12-26 09:44:00,SystemResetWarning,0823.0,4.99,000.00,018.8,017.8,000.0,027.3,020.0,8.9,0000.0,0003.58,0001.89,0001.79
2023-12-26 09:45:00,SystemResetWarning,0822.8,4.99,000.00,018.8,017.7,000.0,027.3,020.0,8.9,0000.0,0003.64,0001.88,0001.78
2023-12-26 09:46:00,SystemResetWarning,0823.1,5.00,000.00,018.8,017.7,000.0,027.3,020.0,8.9,0000.0,0002.43,0001.84,0001.72
2023-12-26 09:47:00,SystemResetWarning,0823.0,5.01,000.00,018.8,017.6,000.0,027.3,020.0,8.8,0000.0,0002.27,0001.80,0001.66
2023-12-26 09:48:00,SystemResetWarning,0822.8,5.01,000.00,018.8,017.6,000.0,027.3,020.0,8.8,0000.0,0002.28,0001.78,0001.64
2023-12-26 09:49:00,SystemResetWarning,0822.4,5.00,000.00,018.8,017.6,000.0,027.3,020.0,9.2,0000.0,0002.30,0001.79,0001.62
2023-12-26 09:50:00,SystemResetWarning,0822.5,4.99,000.00,018.8,017.6,000.0,027.3,020.0,9.4,0000.0,0003.15,0001.69,0001.53
2023-12-26 09:51:00,SystemResetWarning,0822.6,4.99,000.00,018.8,017.6,000.0,027.3,020.0,8.8,0000.0,0003.44,0001.57,0001.43
2023-12-26 09:52:00,SystemResetWarning,0822.6,5.00,000.00,018.7,017.6,000.0,027.3,020.0,8.8,0000.0,0003.33,0001.47,0001.33
2023-12-26 09:53:00,SystemResetWarning,0822.5,5.00,000.00,018.7,017.6,000.0,027.3,020.0,8.9,0000.0,0003.28,0001.40,0001.25
2023-12-26 09:54:00,SystemResetWarning,0822.6,5.00,000.00,018.8,017.9,000.0,027.2,020.3,9.0,0000.0,0003.34,0001.34,0001.17
2023-12-26 09:55:00,SystemResetWarning,0822.6,5.00,000.00,018.9,018.7,000.0,027.2,020.7,9.0,0000.0,0004.66,0001.26,0001.08
2023-12-26 09:56:00,SystemResetWarning,0823.0,4.99,000.00,019.0,019.1,000.0,027.2,020.6,8.9,0000.0,0004.47,0001.20,0001.03
2023-12-26 09:57:00,SystemResetWarning,0823.1,4.99,000.00,019.0,018.9,000.0,027.2,020.2,8.8,0000.0,0004.43,0001.17,0001.00
2023-12-26 09:58:00,SystemResetWarning,0822.8,5.01,000.00,018.9,018.6,000.0,027.2,020.0,8.7,0000.0,0004.43,0001.15,0000.97
2023-12-26 09:59:00,SystemResetWarning,0823.1,5.00,000.00,018.9,018.4,000.0,027.2,020.0,8.8,0000.0,0004.37,0001.08,0000.90
